Home   Weather   Telfs   Past weeks

Flag for Austria Past Weather in Telfs, Tyrol, Austria — Yesterday and Last 2 Weeks

Now
54 °F

Partly sunny.


Feels Like: 54 °F
Forecast: 36 / 47 °F
Wind: 1 mph from North

Location: Innsbruck-Flughafen

Current Time: Feb 20, 2017 at 4:31:10 pm

Latest Report: Feb 20, 2017 at 3:50 pm


Visibility: N/A

Pressure: 30.12 "Hg (27.93 "Hg at 630m altitude)

Humidity: 38%

Dew Point: 28 °F

Location of TelfsLocation

Past Weather in Telfs — Graph

°F

Telfs Temperature Yesterday

Maximum temperature yesterday: 50 °F (at 3:50 pm)
Minimum temperature yesterday: 25 °F (at 7:50 am)
Average temperature yesterday: 36 °F

High & Low Weather Summary for the Past Weeks

 TemperatureHumidityPressure
High57 °F (Feb 14, 3:20 pm)100% (Feb 6, 2:20 am)30.60 "Hg (Feb 6, 2:20 am)
Low25 °F (Feb 9, 11:50 pm)27% (Feb 14, 3:20 pm)29.59 "Hg (Feb 5, 3:20 pm)
Average36 °F78%30.20 "Hg
* Reported Feb 5 3:20 pm — Feb 20 3:20 pm, Telfs, Weather by CustomWeather, © 2017

Note: Actual official high and low records may vary slightly from our data, if they occured in-between our weather recording intervals... More about our weather records

Advertising

Telfs Weather History for the Previous 24 Hours

Scroll right to see more
 ConditionsComfort  
Time TempWeatherWind HumidityBarometerVisibility
3:20 pm
Mon, Feb 20
52 °FPartly sunny.2 mph41%30.12 "HgN/A
2:50 pm52 °FPartly sunny.2 mph44%30.12 "HgN/A
2:20 pm50 °FPartly sunny.3 mph47%30.12 "HgN/A
1:50 pm50 °FPartly sunny.3 mph47%30.15 "HgN/A
1:20 pm48 °FBroken clouds.2 mph54%30.15 "HgN/A
12:50 pm46 °FBroken clouds.3 mph57%30.18 "HgN/A
12:20 pm46 °FBroken clouds.5 mph57%30.21 "HgN/A
11:50 am43 °FPartly sunny.5 mph66%30.24 "HgN/A
11:20 am43 °FPartly sunny.5 mph66%30.24 "HgN/A
10:50 am39 °FBroken clouds.2 mph70%30.24 "HgN/A
10:20 am37 °FBroken clouds.1 mph75%30.24 "HgN/A
9:50 am37 °FBroken clouds.2 mph75%30.24 "HgN/A
9:20 am36 °FBroken clouds.3 mph81%30.24 "HgN/A
8:50 am36 °FBroken clouds.5 mph81%30.24 "HgN/A
8:20 am36 °FBroken clouds.2 mph81%30.24 "HgN/A
7:50 am34 °FBroken clouds.1 mph87%30.24 "HgN/A
7:20 am34 °FBroken clouds.3 mph87%30.24 "HgN/A
6:50 am34 °FPartly cloudy.3 mph87%30.24 "HgN/A
6:20 am34 °FPartly cloudy.3 mph81%30.21 "HgN/A
5:50 am34 °FPartly cloudy.2 mph81%30.21 "HgN/A
5:20 am34 °FPartly cloudy.6 mph87%30.21 "HgN/A
4:50 am34 °FOvercast.2 mph81%30.21 "HgN/A
4:20 am36 °FPassing clouds.2 mph75%30.21 "HgN/A
3:50 am36 °FPartly cloudy.3 mph75%30.21 "HgN/A
3:20 am34 °FPassing clouds.2 mph81%30.21 "HgN/A
2:50 am34 °FPassing clouds.3 mph87%30.21 "HgN/A
2:20 am36 °FPartly cloudy.5 mph75%30.21 "HgN/A
1:50 am36 °FPartly cloudy.3 mph75%30.21 "HgN/A
1:20 am36 °FPassing clouds.2 mph75%30.21 "HgN/A
12:50 am34 °FPassing clouds.2 mph81%30.21 "HgN/A
12:20 am34 °FPassing clouds.2 mph81%30.21 "HgN/A
11:50 pm
Sun, Feb 19
34 °FPassing clouds.2 mph81%30.21 "HgN/A
11:20 pm34 °FPartly cloudy.1 mph81%30.21 "HgN/A
10:50 pm34 °FPassing clouds.2 mph81%30.21 "HgN/A
10:20 pm34 °FPassing clouds.2 mph81%30.21 "HgN/A
9:50 pm36 °FPassing clouds.2 mph75%30.18 "HgN/A
9:20 pm36 °FPassing clouds.3 mph75%30.18 "HgN/A
8:50 pm36 °FPassing clouds.1 mph75%30.18 "HgN/A
8:20 pm36 °FPassing clouds.1 mph75%30.18 "HgN/A
7:50 pm37 °FPassing clouds.2 mph70%30.18 "HgN/A
7:20 pm37 °FPassing clouds.1 mph70%30.18 "HgN/A
6:50 pm39 °FPassing clouds.1 mph65%30.15 "HgN/A
6:20 pm39 °FPassing clouds.2 mph65%30.15 "HgN/A
5:50 pm41 °FPassing clouds.1 mph61%30.15 "HgN/A
5:20 pm43 °FPartly sunny.2 mph57%30.15 "HgN/A
4:50 pm46 °FPassing clouds.5 mph43%30.15 "HgN/A
4:20 pm48 °FPassing clouds.3 mph46%30.15 "HgN/A
Weather by CustomWeather, © 2017

See weather overviewHow to use our weather pages